Date String (YYYY-MM-DD hh:mm:ss) UTC,Instrument flags,Ambient pressure (hPa),Sample flow (lpm),Bypass flow (lpm),Sample temperature (°C),Ambient temperature (°C),ASC tube jacket temperature (°C),LED temperature (°C),Box temperature (°C),Sample RH (%),Span deviation,Mass concentration (μg/m³),Mass concentration (μg/m³),Mass concentration (μg/m³)
DateTimeUTC,F1_M11,P_M11,Q1_M11,Q2_M11,T1_M11,T2_M11,T3_M11,T4_M11,T5_M11,U1_M11,ZSPAN_M11,X0_M11,X2_M11,X1_M11
2023-05-09 18:00:00,,0829.0,5.02,0.00,30.5,29.2,00.0,38.8,32.1,20.3,0000.4,0015.24,0006.04,0005.03
2023-05-09 18:01:00,,0829.0,5.00,0.00,30.5,29.3,00.0,38.8,32.1,20.5,0001.3,0015.32,0006.10,0005.07
2023-05-09 18:02:00,,0829.0,4.98,0.00,30.5,29.3,00.0,38.8,32.1,20.7,0001.6,0015.84,0006.15,0005.09
2023-05-09 18:03:00,,0829.0,5.00,0.00,30.5,29.3,00.0,38.8,32.1,20.3,0001.7,0015.94,0006.18,0005.11
2023-05-09 18:04:00,,0828.9,5.01,0.00,30.5,29.3,00.0,38.8,32.2,20.1,0002.1,0015.36,0006.25,0005.15
2023-05-09 18:05:00,,0828.9,5.01,0.00,30.6,29.3,00.0,38.8,32.2,20.3,0002.1,0015.65,0006.27,0005.17
2023-05-09 18:06:00,,0829.0,4.99,0.00,30.6,29.3,00.0,38.9,32.2,20.1,0002.5,0015.53,0006.29,0005.21
2023-05-09 18:07:00,,0829.0,5.00,0.00,30.6,29.4,00.0,38.9,32.2,20.1,0002.6,0015.23,0006.36,0005.23
2023-05-09 18:08:00,,0828.9,5.01,0.00,30.6,29.4,00.0,38.9,32.2,19.9,0002.5,0016.02,0006.37,0005.25
2023-05-09 18:09:00,,0828.9,4.99,0.00,30.6,29.4,00.0,38.9,32.2,20.1,0002.7,0015.81,0006.36,0005.26
2023-05-09 18:10:00,,0828.9,4.99,0.00,30.6,29.4,00.0,38.9,32.2,19.9,0002.5,0015.65,0006.37,0005.29
2023-05-09 18:11:00,,0828.8,5.01,0.00,30.7,29.4,00.0,38.9,32.2,20.0,0002.5,0015.41,0006.34,0005.29
2023-05-09 18:12:00,,0828.8,5.01,0.00,30.7,29.4,00.0,39.0,32.3,20.0,0002.2,0015.14,0006.35,0005.30
2023-05-09 18:13:00,,0828.7,5.00,0.00,30.7,29.4,00.0,39.0,32.3,19.9,0002.1,0015.42,0006.41,0005.33
2023-05-09 18:14:00,,0828.8,4.99,0.00,30.7,29.4,00.0,39.0,32.3,20.2,0002.1,0014.88,0006.45,0005.36
2023-05-09 18:15:00,,0828.8,5.00,0.00,30.7,28.2,00.0,38.9,32.1,20.2,0001.4,0014.15,0006.45,0005.38
2023-05-09 18:16:00,,0828.7,5.00,0.00,30.6,26.2,00.0,38.8,31.8,20.2,0000.9,0013.65,0006.46,0005.42
2023-05-09 18:17:00,,0828.7,5.00,0.00,30.5,25.6,00.0,38.7,31.7,20.4,0001.1,0013.95,0006.53,0005.45
2023-05-09 18:18:00,,0828.8,5.02,0.00,30.4,25.9,00.0,38.7,31.5,20.2,0001.1,0014.22,0006.53,0005.47
2023-05-09 18:19:00,,0828.8,4.99,0.00,30.3,26.2,00.0,38.7,31.5,20.3,0001.1,0013.93,0006.61,0005.50
2023-05-09 18:20:00,,0828.8,5.00,0.00,30.2,26.6,00.0,38.7,31.6,20.4,0001.4,0014.06,0006.71,0005.56
2023-05-09 18:21:00,,0828.8,5.02,0.00,30.2,27.0,00.0,38.7,31.6,20.6,0001.2,0014.95,0006.79,0005.59
2023-05-09 18:22:00,,0828.8,5.00,0.00,30.2,27.3,00.0,38.6,31.6,20.5,0000.9,0015.65,0006.81,0005.60
2023-05-09 18:23:00,,0828.7,5.00,0.00,30.1,27.6,00.0,38.6,31.7,20.6,0001.0,0016.25,0006.85,0005.61
2023-05-09 18:24:00,,0828.8,5.00,0.00,30.1,27.8,00.0,38.6,31.7,20.5,0000.9,0015.45,0006.86,0005.63
2023-05-09 18:25:00,,0828.7,5.01,0.00,30.1,28.0,00.0,38.6,31.8,20.5,0000.5,0015.71,0006.95,0005.66
2023-05-09 18:26:00,,0828.7,5.00,0.00,30.2,28.2,00.0,38.6,31.8,20.4,0000.8,0016.76,0007.01,0005.69
2023-05-09 18:27:00,,0828.7,4.98,0.00,30.2,28.4,00.0,38.6,31.8,20.6,0000.9,0017.11,0007.06,0005.71
2023-05-09 18:28:00,,0828.6,5.01,0.00,30.2,28.5,00.0,38.6,31.8,20.5,0000.9,0017.13,0007.07,0005.72
2023-05-09 18:29:00,,0828.6,5.01,0.00,30.2,28.6,00.0,38.6,31.8,20.3,0000.8,0016.87,0007.08,0005.72
2023-05-09 18:30:00,,0828.6,5.01,0.00,30.2,28.7,00.0,38.6,31.9,20.2,0000.8,0016.47,0007.08,0005.72
2023-05-09 18:31:00,,0828.6,4.99,0.00,30.2,28.7,00.0,38.6,31.9,20.2,0000.6,0016.78,0007.10,0005.72
2023-05-09 18:32:00,,0828.6,5.01,0.00,30.2,28.8,00.0,38.6,31.9,20.4,0000.7,0016.09,0007.09,0005.71
2023-05-09 18:33:00,,0828.5,5.01,0.00,30.2,28.8,00.0,38.6,31.9,20.5,0000.7,0016.30,0007.10,0005.70
2023-05-09 18:34:00,,0828.6,4.99,0.00,30.3,28.9,00.0,38.6,31.9,20.3,0000.7,0017.15,0007.03,0005.68
2023-05-09 18:35:00,,0828.6,4.99,0.00,30.3,28.9,00.0,38.6,32.0,20.4,0001.0,0017.63,0006.99,0005.65
2023-05-09 18:36:00,,0828.6,5.01,0.00,30.3,29.0,00.0,38.6,32.0,20.2,0001.8,0017.36,0006.94,0005.63
2023-05-09 18:37:00,,0828.6,4.99,0.00,30.3,29.0,00.0,38.7,32.0,20.0,0002.0,0016.21,0006.81,0005.55
2023-05-09 18:38:00,,0828.6,4.99,0.00,30.3,29.0,00.0,38.7,32.0,19.6,0002.2,0015.77,0006.74,0005.51
2023-05-09 18:39:00,,0828.6,5.00,0.00,30.4,29.1,00.0,38.7,32.0,19.6,0001.9,0015.43,0006.70,0005.49
2023-05-09 18:40:00,,0828.6,5.00,0.00,30.4,29.1,00.0,38.7,32.0,19.5,0002.1,0015.69,0006.68,0005.47
2023-05-09 18:41:00,,0828.6,4.99,0.00,30.4,29.1,00.0,38.7,32.1,18.7,0002.4,0015.97,0006.64,0005.44
2023-05-09 18:42:00,,0828.6,4.99,0.00,30.4,29.1,00.0,38.7,32.1,18.7,0002.4,0015.40,0006.54,0005.38
2023-05-09 18:43:00,,0828.6,5.00,0.00,30.4,27.9,00.0,38.7,31.9,19.1,0002.1,0016.08,0006.45,0005.32
2023-05-09 18:44:00,,0828.5,5.01,0.00,30.3,26.1,00.0,38.6,31.6,19.4,0001.9,0015.57,0006.39,0005.27
2023-05-09 18:45:00,,0828.4,5.02,0.00,30.2,25.8,00.0,38.5,31.4,19.5,0002.1,0014.05,0006.38,0005.24
2023-05-09 18:46:00,,0828.4,5.00,0.00,30.1,26.0,00.0,38.5,31.3,19.8,0002.2,0013.95,0006.37,0005.22
2023-05-09 18:47:00,,0828.4,5.00,0.00,30.0,26.3,00.0,38.5,31.4,19.9,0002.1,0015.68,0006.35,0005.21
2023-05-09 18:48:00,,0828.4,5.00,0.00,30.0,26.7,00.0,38.5,31.4,20.2,0002.1,0015.86,0006.46,0005.24
2023-05-09 18:49:00,,0828.4,5.00,0.00,30.0,27.1,00.0,38.4,31.5,20.5,0002.2,0016.06,0006.56,0005.28
2023-05-09 18:50:00,,0828.4,4.99,0.00,30.0,27.4,00.0,38.4,31.5,20.1,0002.4,0016.32,0006.60,0005.29
2023-05-09 18:51:00,,0828.5,5.00,0.00,30.0,27.6,00.0,38.4,31.5,20.1,0002.4,0016.99,0006.63,0005.31
2023-05-09 18:52:00,,0828.4,5.00,0.00,30.0,27.8,00.0,38.4,31.6,19.0,0002.1,0016.99,0006.60,0005.31
2023-05-09 18:53:00,,0828.4,5.01,0.00,30.0,28.0,00.0,38.4,31.6,19.0,0002.3,0017.84,0006.61,0005.30
2023-05-09 18:54:00,,0828.4,5.00,0.00,30.0,28.2,00.0,38.4,31.6,19.3,0002.5,0018.61,0006.65,0005.31
2023-05-09 18:55:00,,0828.4,5.01,0.00,30.0,28.3,00.0,38.4,31.7,19.6,0002.6,0019.74,0006.71,0005.32
2023-05-09 18:56:00,,0828.4,5.00,0.00,30.0,28.5,00.0,38.4,31.7,19.9,0002.3,0020.74,0006.71,0005.31
2023-05-09 18:57:00,,0828.4,5.00,0.00,30.1,28.6,00.0,38.4,31.7,20.6,0002.1,0020.96,0006.75,0005.33
2023-05-09 18:58:00,,0828.4,5.00,0.00,30.1,28.6,00.0,38.4,31.8,20.9,0001.9,0019.36,0006.82,0005.35
2023-05-09 18:59:00,,0828.4,5.00,0.00,30.1,28.7,00.0,38.4,31.8,20.9,0001.4,0019.50,0006.85,0005.37
